Location: Vihti�l�
(61.3833°N, 23.0667°E)
Time: 04:52:30
(UTC+00:00)

Cosmos 2082 - Pass Details

Date: 29 November 2020
Orbit: 833 x 855 km, 71.0° (Epoch: 22 January)

Event Time Altitude Azimuth Distance (km) Brightness Sun altitude
Exits shadow 02:13:32 51° 74° (ENE) 1,070 4.4 -33.3°
Drops below altitude 10° 02:18:03 10° 44° (NE) 2,501 6.8 -32.8°
Sets 02:20:32 0° 41° (NE) 3,441 7.6 -32.5°
